Regional Weather Roundup
Issued by NWS Newport/Morehead, NC

Current Version | Previous Version | Graphics & Text | Print | Product List | Glossary On
Versions: 1 2 3 4 5 6 7 8 9 10 11 12 13 14 15 16 17 18 19 20 21 22 23 24 25 26 27 28 29 30 31 32 33 34 35 36 37 38 39 40 41 42 43 44 45 46 47 48 49 50
449 ASUS42 KMHX 080413 RWRMHX WEATHER ROUNDUP FOR EASTERN NORTH CAROLINA NATIONAL WEATHER SERVICE NEWPORT/MOREHEAD CITY NC 1100 PM EST SUN FEB 07 2016 NOTE: "FAIR" INDICATES FEW OR NO CLOUDS BELOW 12,000 FEET WITH NO SIGNIFICANT WEATHER AND/OR OBSTRUCTIONS TO VISIBILITY NCZ015>017-031-032-045>047-102-103-080500- NORTH COAST CITY SKY/WX TMP DP RH WIND PRES REMARKS EDENTON DRIZZLE 39 37 90 N18G26 29.69S ELIZABETH CITY CLOUDY 40 35 83 N26G33 29.65F KITTY HAWK LGT RAIN 43 41 94 N18G32 29.55R MANTEO LGT RAIN 42 42 99 N29G40 29.56S $$ NCZ045>047-081-094-103-104-080500- CENTRAL COAST CITY SKY/WX TMP DP RH WIND PRES REMARKS FRISCO LGT RAIN 45 42 89 N14G38 29.45R SWANQUARTER NOT AVBL $$ NCZ095-097-098-100-101-080500- SOUTHERN COAST CITY SKY/WX TMP DP RH WIND PRES REMARKS BEAUFORT CLOUDY 39 35 86 NW30G38 29.60R CEDAR ISLAND NOT AVBL JACKSONVILLE CLOUDY 40 39 97 NW20G28 29.71S PINEY ISLAND NOT AVBL WILMINGTON CLOUDY 41 29 62 NW17 29.75R $$ NCZ011>013-027>030-043-044-078>080-089-090>093-098-080500- COASTAL PLAIN CITY SKY/WX TMP DP RH WIND PRES REMARKS AHOSKIE CLOUDY 39 25 56 N10G16 29.76F CLINTON CLOUDY 42 27 54 NW8 29.81R ELIZABETHTOWN CLOUDY 42 28 57 NW13 29.83R GOLDSBORO CLOUDY 41 25 52 NW16G24 29.76S GREENVILLE CLOUDY 41 28 60 N12G18 29.77F HAVELOCK LGT RAIN 37 33 85 NW30G38 29.65R KENANSVILLE N/A 41 25 53 NW12G20 29.78S KINSTON MOCLDY 41 28 60 NW14G21 29.75F NEW BERN CLOUDY 39 31 72 N22G37 29.69R RICHLANDS CLOUDY 39 25 56 NW6 29.74S ROCKY MOUNT CLOUDY 41 23 48 N16G23 29.79F WASHINGTON CLOUDY 37 31 78 NW10G21 29.70F WHITEVILLE CLOUDY 42 28 56 W9 29.82S $$ AMZ130-135-150-152-154-156-158-170-250-252-270-ANZ085-086-088-633-658-670-080500- MARINE OBSERVATIONS STATION/POSITION TIME TEMP WIND PRES WAVE SWELL AIR SEA DIR/SP/G HT/PER HT/PER (UTC) (F) (DEG/KT/KT) (MB) (FT/S) (FT/S) CHESAPEAKE LIGHT 0400 42 350/ 33/ 35 1004.2 64 E VA BEACH 0350 51 54 10/ 35/ 45 997.7 17/ 9 13/ 9 DUCK 0300 44 54 350/ 38/ 45 1000.2 2 E DUCK 0311 45 N/A 14/11 5/11 OREGON INLET 0300 45 45 350/ 25/ 36 999.2 13E OREGON INLT 0400 47 N/A 21/12 15/12 HATTERAS CG 0300 45 47 340/ 48/ 58 996.6 DIAMOND BUOY 0350 51 70 360/ 43/ 52 993.0 19/12 11/12 CAPE LOOKOUT NOT AVBL BEAUFORT LAB 0300 39 45 350/ 24/ 37 1000.6 30 SE NEW RVR IN 0308 40 60 999.6 30 SE NEW RVR IN 0325 60 N/A 14/13 8/13 27 SE WRIGHTSVLE 0308 42 60 360/ 33/ 47 1001.1 5 SE WRIGHTSVLE 0308 43 52 330/ 27 1006.3 225 S CAPE HAT 0350 58 69 300/ 45/ 58 N/A 28/14 21/14 41 SE CHARLESTON 0350 52 66 320/ 27/ 33 1011.2 10/ 6 3/17 $$

USA.gov is the U.S. government's official web portal to all federal, state and local government web resources and services.